[Iaude] MPEC P52: 2020 PY [a=2.03,e=0.52,i=7.6,H=25.6]

mpec at marsden.cfa.harvard.edu mpec at marsden.cfa.harvard.edu
Tue Aug 11 20:41:12 EDT 2020


M.P.E.C. 2020-P52                               Issued 2020 August 12, 00:40 UT

     The Minor Planet Electronic Circulars contain information on unusual
         minor planets and routine data on comets.  They are published
    on behalf of Division F of the International Astronomical Union by the
          Minor Planet Center, Smithsonian Astrophysical Observatory,
                          Cambridge, MA 02138, U.S.A.

             Prepared using the Tamkin Foundation Computer Network

                              MPC at CFA.HARVARD.EDU
            URL https://www.minorplanetcenter.net/    ISSN 1523-6714

                                    2020 PY                                     


Observations:
     K20P00Y  C2020 08 10.40145421 43 04.324-15 33 33.02         20.85GVEP052F52
     K20P00Y  C2020 08 10.41380421 43 08.282-15 34 23.68         20.26GVEP052F52
     K20P00Y  C2020 08 10.43849421 43 16.069-15 36 06.70         21.36GVEP052F52
     K20P00Y* C2020 08 11.34752921 48 26.273-16 34 39.56         21.12wUEP052F51
     K20P00Y  C2020 08 11.35785021 48 29.269-16 35 18.37         21.42wUEP052F51
     K20P00Y  C2020 08 11.36815921 48 32.202-16 35 56.44         21.42wUEP052F51
     K20P00Y  C2020 08 11.37848621 48 35.140-16 36 34.70         21.20wUEP052F51
     K20P00Y  C2020 08 11.97637 21 51 36.82 -17 11 50.7          21.2 VVEP052033
     K20P00Y  C2020 08 11.97940 21 51 37.65 -17 12 00.8          21.0 VVEP052033

Observer details:
033 Karl Schwarzschild Observatory, Tautenburg.  Observers S. Melnikov, U.
    Laux, B. Stecklum.  Measurer B. Stecklum.  1.34-m f/3 Schmidt + CCD.
F51 Pan-STARRS 1, Haleakala.  Observers J. Bulger, T. Lowe, A. Schultz, M.
    Willman.  Measurers K. Chambers, S. Chastel, T. de Boer, L. Denneau, J.
    Fairlamb, H. Flewelling, M. Huber, C.-C. Lin, E. Magnier, Y. Ramanjooloo,
    R. Wainscoat, R. Weryk.  1.8-m Ritchey-Chretien + CCD.
F52 Pan-STARRS 2, Haleakala.  Observers J. Bulger, K. Chambers, T. Dukes, T.
    Lowe, A. Schultz, M. Willman.  Measurers S. Chastel, M. Huber, Y.
    Ramanjooloo, R. Wainscoat, R. Weryk.  1.8-m Ritchey-Chretien + CCD.

Orbital elements:
2020 PY                                                  Earth MOID = 0.0384 AU
Epoch 2020 May 31.0 TT = JDT 2459000.5                  Veres
M 349.62344              (2000.0)            P               Q
n   0.33986815     Peri.  133.78238     +0.02408596     +0.99563918
a   2.0335853      Node   137.34866     -0.95117483     +0.05057184
e   0.5178317      Incl.    7.64407     -0.30771142     -0.07839077
P   2.90           H   25.6           G   0.15           U   7
Residuals in seconds of arc
200810 F52  0.1-  0.3-    200811 F51  0.0   0.1+    200811 F51  0.2-  0.0
200810 F52  0.3+  0.5+    200811 F51  0.2+  0.2-    200811 033  0.0   0.0
200810 F52  0.1-  0.1-    200811 F51  0.1-  0.0     200811 033  0.1+  0.1+

Ephemeris:
2020 PY                  a,e,i = 2.03, 0.52, 8                   q = 0.9805
Date    TT    R. A. (2000) Decl.     Delta      r    Elong.  Phase     V
2020 07 13    13 13 51.5 +38 45 18   0.1003  0.9928    73.5   100.9    24.3
...
2020 07 28    18 03 43.5 +26 35 07   0.04093 1.0379   122.3    55.8    20.8
...
2020 08 05    20 56 40.7 -06 08 01   0.05995 1.0733   169.1    10.3    20.3
...
2020 08 11    21 46 28.7 -16 12 09   0.09106 1.1042   174.5     5.1    21.0
2020 08 12    21 51 43.3 -17 11 43   0.09681 1.1096   173.8     5.7    21.2
2020 08 13    21 56 24.0 -18 04 03   0.1027  1.1152   173.1     6.3    21.4
...
2020 08 19    22 16 05.5 -21 34 15   0.1398  1.1499   169.7     9.0    22.2
...
2020 08 27    22 29 56.8 -23 42 12   0.1942  1.1999   166.3    11.5    23.1
...
2020 09 11    22 42 10.4 -24 26 31   0.3116  1.3015   158.4    16.5    24.5

M. P. C. Staff               (C) Copyright 2020 MPC           M.P.E.C. 2020-P52




More information about the Iaude mailing list